Date String (YYYY-MM-DD hh:mm:ss) UTC,Instrument flags,absolute air pressure of the measurement (hPa),sample flow rate (lpm),inlet stack bypass flow (lpm),air temperature of the measurement (°C),ambient temperature measured by the external sensor (°C),aerosol sample conditioner tube jacket temperature (°C),OPC LED temperature (°C),internal box temperature (°C),relative humidity of the measurement (%),span deviation,mass concentration of particles derived from Lorenz-Mie calculation of OPC scattering (μg/m³),mass concentration of particles derived from Lorenz-Mie calculation of OPC scattering (μg/m³),mass concentration of particles derived from Lorenz-Mie calculation of OPC scattering (μg/m³)
DateTimeUTC,F1_M11,P_M11,Q1_M11,Q2_M11,T1_M11,T2_M11,T3_M11,T4_M11,T5_M11,U1_M11,ZSPAN_M11,X0_M11,X2_M11,X1_M11
2024-01-06 21:00:00,SystemResetWarning,0819.8,4.99,000.00,020.2,019.0,000.0,028.4,021.3,6.4,0000.0,0002.41,0001.19,0000.87
2024-01-06 21:01:00,SystemResetWarning,0819.8,5.00,000.00,020.2,019.0,000.0,028.4,021.3,6.4,0000.0,0002.25,0001.23,0000.87
2024-01-06 21:02:00,SystemResetWarning,0819.8,5.00,000.00,020.2,019.0,000.0,028.4,021.3,6.4,0000.0,0002.21,0001.22,0000.87
2024-01-06 21:03:00,SystemResetWarning,0819.8,5.02,000.00,020.2,019.0,000.0,028.4,021.3,6.3,0000.0,0001.98,0001.21,0000.88
2024-01-06 21:04:00,SystemResetWarning,0819.7,5.01,000.00,020.2,019.0,000.0,028.4,021.3,6.3,0000.0,0001.97,0001.19,0000.88
2024-01-06 21:05:00,SystemResetWarning,0820.2,4.99,000.00,020.2,019.0,000.0,028.4,021.3,6.3,0000.0,0002.72,0001.18,0000.88
2024-01-06 21:06:00,SystemResetWarning,0820.0,4.99,000.00,020.2,019.0,000.0,028.4,021.3,6.3,0000.0,0003.85,0001.16,0000.87
2024-01-06 21:07:00,SystemResetWarning,0819.8,5.00,000.00,020.1,019.0,000.0,028.4,021.3,6.4,0000.0,0003.91,0001.17,0000.86
2024-01-06 21:08:00,SystemResetWarning,0819.8,5.00,000.00,020.1,019.0,000.0,028.4,021.4,6.4,0000.0,0004.08,0001.20,0000.85
2024-01-06 21:09:00,SystemResetWarning,0819.9,5.00,000.00,020.1,019.1,000.0,028.4,021.4,6.4,0000.0,0004.11,0001.21,0000.85
2024-01-06 21:10:00,SystemResetWarning,0820.1,5.00,000.00,020.1,019.1,000.0,028.4,021.4,6.4,0000.0,0004.21,0001.23,0000.85
2024-01-06 21:11:00,SystemResetWarning,0819.7,5.00,000.00,020.1,019.1,000.0,028.4,021.4,6.4,0000.0,0004.29,0001.26,0000.87
2024-01-06 21:12:00,SystemResetWarning,0820.0,5.00,000.00,020.1,019.1,000.0,028.4,021.4,6.4,0000.0,0004.10,0001.20,0000.87
2024-01-06 21:13:00,SystemResetWarning,0819.8,5.01,000.00,020.1,019.0,000.0,028.4,021.4,6.4,0000.0,0004.39,0001.23,0000.88
2024-01-06 21:14:00,SystemResetWarning,0819.7,5.00,000.00,020.2,019.0,000.0,028.4,021.4,6.4,0000.0,0004.52,0001.25,0000.88
2024-01-06 21:15:00,SystemResetWarning,0819.7,5.00,000.00,020.2,019.0,000.0,028.4,021.3,6.4,0000.0,0004.58,0001.28,0000.89
2024-01-06 21:16:00,SystemResetWarning,0820.0,5.00,000.00,020.2,019.0,000.0,028.4,021.3,6.4,0000.0,0005.03,0001.32,0000.91
2024-01-06 21:17:00,SystemResetWarning,0820.1,4.99,000.00,020.2,019.0,000.0,028.4,021.3,6.4,0000.0,0003.60,0001.33,0000.91
2024-01-06 21:18:00,SystemResetWarning,0819.8,5.00,000.00,020.2,019.0,000.0,028.4,021.3,6.4,0000.0,0005.07,0001.33,0000.92
2024-01-06 21:19:00,SystemResetWarning,0819.8,5.00,000.00,020.2,019.0,000.0,028.4,021.3,6.4,0000.0,0004.91,0001.31,0000.93
2024-01-06 21:20:00,SystemResetWarning,0819.8,5.00,000.00,020.2,019.0,000.0,028.4,021.3,6.4,0000.0,0004.94,0001.33,0000.93
2024-01-06 21:21:00,SystemResetWarning,0820.0,5.01,000.00,020.1,019.0,000.0,028.4,021.3,6.4,0000.0,0004.84,0001.31,0000.92
2024-01-06 21:22:00,SystemResetWarning,0820.0,5.00,000.00,020.1,019.0,000.0,028.4,021.4,6.5,0000.0,0004.77,0001.28,0000.92
2024-01-06 21:23:00,SystemResetWarning,0819.8,4.99,000.00,020.1,019.0,000.0,028.4,021.4,6.5,0000.0,0004.77,0001.28,0000.92
2024-01-06 21:24:00,SystemResetWarning,0819.9,5.00,000.00,020.1,019.0,000.0,028.4,021.3,6.3,0000.0,0004.49,0001.25,0000.93
2024-01-06 21:25:00,SystemResetWarning,0819.8,5.00,000.00,020.1,019.0,000.0,028.4,021.3,6.3,0000.0,0004.37,0001.24,0000.94
2024-01-06 21:26:00,SystemResetWarning,0819.8,4.99,000.00,020.1,019.0,000.0,028.4,021.3,6.3,0000.0,0004.45,0001.26,0000.96
2024-01-06 21:27:00,SystemResetWarning,0819.8,5.00,000.00,020.1,019.0,000.0,028.4,021.3,6.3,0000.0,0004.01,0001.26,0000.95
2024-01-06 21:28:00,SystemResetWarning,0819.9,5.00,000.00,020.1,019.0,000.0,028.4,021.3,6.3,0000.0,0003.74,0001.27,0000.96
2024-01-06 21:29:00,SystemResetWarning,0819.8,5.00,000.00,020.1,019.0,000.0,028.4,021.3,6.3,0000.0,0002.16,0001.27,0000.96
2024-01-06 21:30:00,SystemResetWarning,0819.9,5.00,000.00,020.1,019.0,000.0,028.4,021.3,6.3,0000.0,0002.20,0001.28,0000.97
2024-01-06 21:31:00,SystemResetWarning,0820.0,5.01,000.00,020.1,019.0,000.0,028.4,021.4,6.3,0000.0,0002.20,0001.28,0000.99
2024-01-06 21:32:00,SystemResetWarning,0820.1,5.01,000.00,020.1,019.0,000.0,028.4,021.4,6.4,0000.0,0002.53,0001.34,0001.01
2024-01-06 21:33:00,SystemResetWarning,0819.8,5.00,000.00,020.1,019.0,000.0,028.4,021.4,6.3,0000.0,0002.93,0001.37,0001.01
2024-01-06 21:34:00,SystemResetWarning,0819.9,4.99,000.00,020.1,019.0,000.0,028.4,021.3,6.3,0000.0,0002.92,0001.37,0001.02
2024-01-06 21:35:00,SystemResetWarning,0820.2,5.00,000.00,020.1,019.0,000.0,028.4,021.3,6.3,0000.0,0003.00,0001.41,0001.03
2024-01-06 21:36:00,SystemResetWarning,0819.9,4.99,000.00,020.1,019.0,000.0,028.4,021.3,6.2,0000.0,0002.98,0001.40,0001.02
2024-01-06 21:37:00,SystemResetWarning,0820.1,5.01,000.00,020.1,019.0,000.0,028.4,021.3,6.2,0000.0,0002.78,0001.37,0001.02
2024-01-06 21:38:00,SystemResetWarning,0820.0,5.01,000.00,020.1,019.0,000.0,028.4,021.4,6.2,0000.0,0002.55,0001.34,0001.04
2024-01-06 21:39:00,SystemResetWarning,0820.0,5.01,000.00,020.1,019.0,000.0,028.4,021.4,6.3,0000.0,0002.47,0001.31,0001.04
2024-01-06 21:40:00,SystemResetWarning,0819.8,4.99,000.00,020.1,019.0,000.0,028.4,021.3,6.3,0000.0,0002.82,0001.34,0001.06
2024-01-06 21:41:00,SystemResetWarning,0819.8,4.99,000.00,020.1,019.0,000.0,028.4,021.3,6.2,0000.0,0002.93,0001.35,0001.06
2024-01-06 21:42:00,SystemResetWarning,0819.9,5.00,000.00,020.1,019.0,000.0,028.4,021.3,6.2,0000.0,0002.86,0001.32,0001.06
2024-01-06 21:43:00,SystemResetWarning,0820.0,5.00,000.00,020.1,019.0,000.0,028.4,021.3,6.3,0000.0,0002.62,0001.28,0001.07
2024-01-06 21:44:00,SystemResetWarning,0819.9,5.02,000.00,020.1,019.0,000.0,028.4,021.3,6.3,0000.0,0002.31,0001.29,0001.07
2024-01-06 21:45:00,SystemResetWarning,0820.0,5.01,000.00,020.1,019.0,000.0,028.4,021.4,6.3,0000.0,0002.47,0001.33,0001.08
2024-01-06 21:46:00,SystemResetWarning,0820.0,5.00,000.00,020.1,019.0,000.0,028.4,021.3,6.3,0000.0,0002.52,0001.31,0001.08
2024-01-06 21:47:00,SystemResetWarning,0819.9,5.00,000.00,020.1,019.0,000.0,028.4,021.3,6.3,0000.0,0002.59,0001.35,0001.08
2024-01-06 21:48:00,SystemResetWarning,0819.8,5.00,000.00,020.1,019.0,000.0,028.4,021.3,6.2,0000.0,0002.61,0001.35,0001.08
2024-01-06 21:49:00,SystemResetWarning,0819.9,5.00,000.00,020.1,019.0,000.0,028.3,021.4,6.2,0000.0,0002.61,0001.35,0001.08
2024-01-06 21:50:00,SystemResetWarning,0819.8,4.99,000.00,020.1,019.0,000.0,028.3,021.4,6.2,0000.0,0002.61,0001.35,0001.08
2024-01-06 21:51:00,SystemResetWarning,0819.9,5.00,000.00,020.1,019.0,000.0,028.4,021.4,6.2,0000.0,0002.44,0001.33,0001.07
2024-01-06 21:52:00,SystemResetWarning,0819.9,5.00,000.00,020.1,019.0,000.0,028.4,021.3,6.2,0000.0,0002.41,0001.30,0001.06
2024-01-06 21:53:00,SystemResetWarning,0819.8,5.01,000.00,020.1,019.0,000.0,028.4,021.3,6.1,0000.0,0002.43,0001.31,0001.07
2024-01-06 21:54:00,SystemResetWarning,0819.9,5.01,000.00,020.1,019.0,000.0,028.4,021.3,6.2,0000.0,0002.46,0001.30,0001.06
2024-01-06 21:55:00,SystemResetWarning,0820.0,5.01,000.00,020.1,019.0,000.0,028.4,021.4,6.3,0000.0,0003.57,0001.28,0001.06
2024-01-06 21:56:00,SystemResetWarning,0820.0,5.00,000.00,020.1,019.0,000.0,028.4,021.4,6.4,0000.0,0003.49,0001.26,0001.06
2024-01-06 21:57:00,SystemResetWarning,0820.0,5.00,000.00,020.1,019.0,000.0,028.4,021.4,6.4,0000.0,0003.51,0001.24,0001.05
2024-01-06 21:58:00,SystemResetWarning,0820.1,4.99,000.00,020.1,019.1,000.0,028.4,021.5,6.4,0000.0,0003.51,0001.21,0001.04
2024-01-06 21:59:00,SystemResetWarning,0820.0,5.00,000.00,020.1,019.1,000.0,028.4,021.5,6.5,0000.0,0003.45,0001.18,0001.04
